Time,TemperatureF,DewpointF,PressureIn,WindDirection,WindDirectionDegrees,WindSpeedMPH,WindSpeedGustMPH,Humidity,HourlyPrecipIn,Conditions,Clouds,dailyrainin,SoftwareType,DateUTC
2013-12-29 04:43:00,33.0,29.0,30.05,South,182,0.0,0.0,84,0.00,,,-99.99,,2013-12-29 09:43:00,
2013-12-29 06:00:00,36.0,31.0,30.01,WNW,303,0.0,2.0,82,0.00,,,-99.99,,2013-12-29 11:00:00,
2013-12-29 06:43:00,36.0,31.0,30.01,WNW,303,0.0,2.0,82,0.00,,,-99.99,,2013-12-29 11:43:00,
2013-12-29 06:53:00,36.0,31.0,30.01,WNW,303,0.0,2.0,82,0.00,,,-99.99,,2013-12-29 11:53:00,
2013-12-29 07:00:00,43.0,30.0,30.02,SSW,197,4.0,8.0,59,0.00,,,-99.99,,2013-12-29 12:00:00,
2013-12-29 07:42:00,43.0,30.0,30.02,SSW,197,4.0,8.0,59,0.00,,,-99.99,,2013-12-29 12:42:00,
2013-12-29 07:52:00,43.0,30.0,30.02,SSW,197,4.0,8.0,59,0.00,,,-99.99,,2013-12-29 12:52:00,
2013-12-29 08:00:00,41.0,36.0,30.03,South,185,4.0,9.0,84,0.02,,,-99.99,,2013-12-29 13:00:00,
2013-12-29 08:42:00,41.0,36.0,30.03,South,185,4.0,9.0,84,0.02,,,-99.99,,2013-12-29 13:42:00,
2013-12-29 08:53:00,41.0,36.0,30.03,South,185,4.0,9.0,84,0.02,,,-99.99,,2013-12-29 13:53:00,
2013-12-29 09:00:00,40.0,38.0,30.01,South,190,0.0,7.0,92,0.08,,,-99.99,,2013-12-29 14:00:00,
2013-12-29 09:42:00,40.0,38.0,30.01,South,190,0.0,7.0,92,0.08,,,-99.99,,2013-12-29 14:42:00,
2013-12-29 09:52:00,40.0,38.0,30.01,South,190,0.0,7.0,92,0.08,,,-99.99,,2013-12-29 14:52:00,
2013-12-29 10:00:00,40.0,38.0,29.93,East,98,0.0,0.0,93,0.06,,,-99.99,,2013-12-29 15:00:00,
2013-12-29 10:44:00,40.0,38.0,29.93,East,98,0.0,0.0,93,0.06,,,-99.99,,2013-12-29 15:44:00,
2013-12-29 10:53:00,40.0,38.0,29.93,East,98,0.0,0.0,93,0.06,,,-99.99,,2013-12-29 15:53:00,
2013-12-29 11:00:00,41.0,39.0,29.86,ENE,57,0.0,3.0,94,0.03,,,-99.99,,2013-12-29 16:00:00,
2013-12-29 11:43:00,41.0,39.0,29.86,ENE,57,0.0,3.0,94,0.03,,,-99.99,,2013-12-29 16:43:00,
2013-12-29 11:53:00,41.0,39.0,29.86,ENE,57,0.0,3.0,94,0.03,,,-99.99,,2013-12-29 16:53:00,
2013-12-29 12:00:00,43.0,42.0,29.80,ESE,113,0.0,4.0,94,0.07,,,-99.99,,2013-12-29 17:00:00,
2013-12-29 12:42:00,43.0,42.0,29.80,ESE,113,0.0,4.0,94,0.07,,,-99.99,,2013-12-29 17:42:00,
2013-12-29 12:52:00,43.0,42.0,29.80,ESE,113,0.0,4.0,94,0.07,,,-99.99,,2013-12-29 17:52:00,
2013-12-29 13:00:00,45.0,43.0,29.69,ESE,104,1.0,12.0,94,0.17,,,-99.99,,2013-12-29 18:00:00,
2013-12-29 13:42:00,45.0,43.0,29.69,ESE,104,1.0,12.0,94,0.17,,,-99.99,,2013-12-29 18:42:00,
2013-12-29 13:53:00,45.0,43.0,29.69,ESE,104,1.0,12.0,94,0.17,,,-99.99,,2013-12-29 18:53:00,
2013-12-29 14:00:00,46.0,44.0,29.57,ENE,70,0.0,17.0,94,0.30,,,-99.99,,2013-12-29 19:00:00,
2013-12-29 14:43:00,46.0,44.0,29.57,ENE,70,0.0,17.0,94,0.30,,,-99.99,,2013-12-29 19:43:00,
2013-12-29 14:52:00,46.0,44.0,29.57,ENE,70,0.0,17.0,94,0.30,,,-99.99,,2013-12-29 19:52:00,
2013-12-29 15:00:00,48.0,47.0,29.48,SSE,153,8.0,18.0,94,0.34,,,-99.99,,2013-12-29 20:00:00,
2013-12-29 15:42:00,48.0,47.0,29.48,SSE,153,8.0,18.0,94,0.34,,,-99.99,,2013-12-29 20:42:00,
2013-12-29 15:53:00,48.0,47.0,29.48,SSE,153,8.0,18.0,94,0.34,,,-99.99,,2013-12-29 20:53:00,
2013-12-29 16:00:00,57.0,56.0,29.40,SSW,200,8.0,29.0,94,0.09,,,-99.99,,2013-12-29 21:00:00,
2013-12-29 16:43:00,57.0,56.0,29.40,SSW,200,8.0,29.0,94,0.09,,,-99.99,,2013-12-29 21:43:00,
2013-12-29 16:54:00,57.0,56.0,29.40,SSW,200,8.0,29.0,94,0.09,,,-99.99,,2013-12-29 21:54:00,
2013-12-29 17:00:00,57.0,54.0,29.41,WSW,241,0.0,36.0,89,0.06,,,-99.99,,2013-12-29 22:00:00,
2013-12-29 17:42:00,57.0,54.0,29.41,WSW,241,0.0,36.0,89,0.06,,,-99.99,,2013-12-29 22:42:00,
2013-12-29 17:52:00,57.0,54.0,29.41,WSW,241,0.0,36.0,89,0.06,,,-99.99,,2013-12-29 22:52:00,
2013-12-29 18:00:00,52.0,48.0,29.45,WSW,254,15.0,29.0,86,0.00,,,-99.99,,2013-12-29 23:00:00,
2013-12-29 18:42:00,52.0,48.0,29.45,WSW,254,15.0,29.0,86,0.00,,,-99.99,,2013-12-29 23:42:00,
2013-12-29 18:53:00,52.0,48.0,29.45,WSW,254,15.0,29.0,86,0.00,,,-99.99,,2013-12-29 23:53:00,
2013-12-29 19:00:00,49.0,45.0,29.50,WNW,282,7.0,24.0,85,0.00,,,-99.99,,2013-12-30 00:00:00,
2013-12-29 19:42:00,49.0,45.0,29.50,WNW,282,7.0,24.0,85,0.00,,,-99.99,,2013-12-30 00:42:00,
2013-12-29 19:53:00,49.0,45.0,29.50,WNW,282,7.0,24.0,85,0.00,,,-99.99,,2013-12-30 00:53:00,
2013-12-29 20:00:00,46.0,42.0,29.57,West,276,0.0,24.0,84,0.00,,,-99.99,,2013-12-30 01:00:00,
2013-12-29 20:43:00,46.0,42.0,29.57,West,276,0.0,24.0,84,0.00,,,-99.99,,2013-12-30 01:43:00,
2013-12-29 20:52:00,46.0,42.0,29.57,West,276,0.0,24.0,84,0.00,,,-99.99,,2013-12-30 01:52:00,
2013-12-29 21:00:00,43.0,39.0,29.64,NW,322,0.0,26.0,84,0.00,,,-99.99,,2013-12-30 02:00:00,
2013-12-29 21:42:00,43.0,39.0,29.64,NW,322,0.0,26.0,84,0.00,,,-99.99,,2013-12-30 02:42:00,
2013-12-29 21:52:00,43.0,39.0,29.64,NW,322,0.0,26.0,84,0.00,,,-99.99,,2013-12-30 02:52:00,
2013-12-29 22:00:00,42.0,38.0,29.67,WNW,287,0.0,15.0,88,0.00,,,-99.99,,2013-12-30 03:00:00,
2013-12-29 22:43:00,42.0,38.0,29.67,WNW,287,0.0,15.0,88,0.00,,,-99.99,,2013-12-30 03:43:00,
2013-12-29 22:54:00,42.0,38.0,29.67,WNW,287,0.0,15.0,88,0.00,,,-99.99,,2013-12-30 03:54:00,
2013-12-29 23:00:00,40.0,38.0,29.72,West,272,0.0,0.0,91,0.00,,,-99.99,,2013-12-30 04:00:00,
2013-12-29 23:43:00,40.0,38.0,29.72,West,272,0.0,0.0,91,0.00,,,-99.99,,2013-12-30 04:43:00,
2013-12-29 23:53:00,40.0,38.0,29.72,West,272,0.0,0.0,91,0.00,,,-99.99,,2013-12-30 04:53:00,